Location: Eaton Estates
(41.3089°N, 82.0057°W)
Time: 08:39:04
(UTC+00:00)

Cosmos 1076 Rocket - Pass Details

Date: 17 June 2021
Orbit: 590 x 611 km, 82.5° (Epoch: 27 July)

Event Time Altitude Azimuth Distance (km) Brightness Sun altitude
Exits shadow 07:41:44 42° 215° (SW) 850 3.7 -18.4°
Maximum altitude 07:42:59 65° 279° (W) 654 3.5 -18.2°
Drops below altitude 10° 07:47:13 10° 2° (N) 1,928 7.0 -17.8°
Sets 07:49:27 0° 5° (N) 2,834 8.1 -17.6°
